Alexandria, MN (56308)

1:27 PM CDT on August 29, 2016 (GMT -0500)
Burgen Sunrise | | Change Station

Elev 1398 ft 45.86 °N, 95.35 °W | Updated 18 seconds ago

Clear
Clear
80.1 °F
Feels Like 85 °F
N
0.0
Wind Variable Wind from SSE
Gusts 0.0 mph

Today
High -- | Low -- °F
--% Chance of Precip.
Yesterday
High -- | Low -- °F
Precip. -- in
Pressure 30.16 in
Visibility 10.0 miles
Clouds Clear
Heat Index 85 °F
Dew Point 76 °F
Humidity 86%
Rainfall 2.74 in
Snow Depth Not available.
6:39 AM 8:04 PM
Waning Crescent, 7% visible
METAR KAXN 291753Z AUTO 22009KT 10SM CLR 27/21 A3018 RMK AO2 SLP213 60006 T02670206 10267 20178 51005
Pressure 30.16 in
Visibility 10.0 miles
Clouds Clear
Heat Index 85 °F
Dew Point 76 °F
Humidity 86%
Rainfall 2.74 in
Snow Depth Not available.
6:39 AM 8:04 PM
Waning Crescent, 7% visible
METAR KAXN 291753Z AUTO 22009KT 10SM CLR 27/21 A3018 RMK AO2 SLP213 60006 T02670206 10267 20178 51005

10-Day Weather Forecast

Almanac

Astronomy

Aug. 29, 2016 Rise Set
Actual Time
Civil Twilight
Nautical Twilight
Astronomical Twilight
Moon
Length of Visible Light
Length of Day
Tomorrow will be .
, % of the Moon is Illuminated

Today's Extremes

State Highs State Lows

Community

WunderPhotos

Upload Photos

1,935,684 photos uploaded!

WunderBlog® & News

Nearby

Air Quality

  Air Quality AQ Index Pollutant
Not available.

Snow Depth

Station Depth Elevation

Earthquake Activity

City Distance Mag. Time & Date
Minimum magnitude displayed is 2.5.

Coastal Water Temperatures

Place Temperature

Stations

Nearby Weather Stations

Station Location Temp. Windchill Dew Point Humidity Wind Precip. Elev Updated Type
                   

Watches & Warnings

There are currently no watches in effect.